TimeCST,TemperatureF,Dew PointF,Humidity,Sea Level PressureIn,VisibilityMPH,Wind Direction,Wind SpeedMPH,Gust SpeedMPH,PrecipitationIn,Events,Conditions,WindDirDegrees,DateUTC
12:52 AM,12.0,10.9,95,30.45,-9999.0,Calm,Calm,-,N/A,,Unknown,0,2013-01-04 06:52:00
1:52 AM,14.0,12.0,92,30.45,-9999.0,Calm,Calm,-,N/A,,Unknown,0,2013-01-04 07:52:00
2:52 AM,12.9,10.9,92,30.45,-9999.0,SSW,4.6,-,N/A,,Unknown,200,2013-01-04 08:52:00
3:52 AM,14.0,12.0,92,30.44,-9999.0,South,4.6,-,N/A,,Unknown,180,2013-01-04 09:52:00
4:52 AM,12.9,12.0,96,30.43,-9999.0,South,3.5,-,N/A,,Unknown,190,2013-01-04 10:52:00
5:52 AM,12.9,10.9,92,30.43,-9999.0,South,3.5,-,N/A,,Unknown,180,2013-01-04 11:52:00
6:52 AM,12.9,10.9,92,30.43,-9999.0,South,3.5,-,N/A,,Unknown,190,2013-01-04 12:52:00
7:52 AM,15.1,12.9,91,30.42,-9999.0,South,5.8,-,N/A,,Unknown,190,2013-01-04 13:52:00
8:52 AM,19.9,17.1,89,30.42,-9999.0,Calm,Calm,-,N/A,,Unknown,0,2013-01-04 14:52:00
9:52 AM,25.0,21.0,85,30.43,-9999.0,South,4.6,-,N/A,,Unknown,170,2013-01-04 15:52:00
10:52 AM,32.0,23.0,69,30.42,-9999.0,SSW,8.1,-,N/A,,Unknown,200,2013-01-04 16:52:00
11:52 AM,36.0,21.9,57,30.40,-9999.0,SW,10.4,16.1,N/A,,Unknown,230,2013-01-04 17:52:00
12:52 PM,37.0,21.9,54,30.37,-9999.0,SW,9.2,-,N/A,,Unknown,230,2013-01-04 18:52:00
1:52 PM,39.0,23.0,53,30.35,-9999.0,SW,8.1,16.1,N/A,,Unknown,230,2013-01-04 19:52:00
2:52 PM,39.9,21.9,49,30.33,-9999.0,SW,11.5,17.3,N/A,,Unknown,230,2013-01-04 20:52:00
3:52 PM,39.9,23.0,51,30.32,-9999.0,SSW,8.1,-,N/A,,Unknown,210,2013-01-04 21:52:00
4:52 PM,37.0,23.0,57,30.32,-9999.0,South,4.6,-,N/A,,Unknown,180,2013-01-04 22:52:00
5:52 PM,30.9,23.0,72,30.33,-9999.0,South,3.5,-,N/A,,Unknown,190,2013-01-04 23:52:00
6:52 PM,30.0,23.0,75,30.34,-9999.0,Calm,Calm,-,N/A,,Unknown,0,2013-01-05 00:52:00
7:52 PM,26.1,21.0,81,30.33,-9999.0,South,3.5,-,N/A,,Unknown,170,2013-01-05 01:52:00
8:52 PM,25.0,21.0,85,30.32,-9999.0,South,4.6,-,N/A,,Unknown,170,2013-01-05 02:52:00
9:52 PM,25.0,19.9,81,30.31,-9999.0,Calm,Calm,-,N/A,,Unknown,0,2013-01-05 03:52:00
10:52 PM,23.0,19.9,88,30.30,-9999.0,South,4.6,-,N/A,,Unknown,180,2013-01-05 04:52:00
11:52 PM,28.0,23.0,81,30.29,-9999.0,SSW,3.5,-,N/A,,Unknown,200,2013-01-05 05:52:00